Location: Hermaringen
(48.5952°N, 10.2585°E)
Time: 21:21:24
(UTC+00:00)

Cosmos 2151 Rocket - Pass Details

Date: 18 November 2025
Orbit: 612 x 636 km, 82.5° (Epoch: 10 December)

Event Time Altitude Azimuth Distance (km) Brightness Sun altitude
Rises 17:53:53 0° 200° (SSW) 2,918 7.3 -22.5°
Reaches altitude 10° 17:56:09 10° 205° (SSW) 2,017 6.5 -22.9°
Maximum altitude 18:00:33 55° 283° (WNW) 772 4.3 -23.6°
Drops below altitude 10° 18:04:59 10° 2° (N) 2,036 6.2 -24.4°
Enters shadow 18:05:06 - 2° (N) 2,077 6.2 -24.4°
